TimeCST,TemperatureF,Dew PointF,Humidity,Sea Level PressureIn,VisibilityMPH,Wind Direction,Wind SpeedMPH,Gust SpeedMPH,PrecipitationIn,Events,Conditions,WindDirDegrees,DateUTC
12:53 AM,30.9,25.0,79,30.21,10.0,Calm,Calm,-,N/A,,Clear,0,2013-03-01 06:53:00
1:53 AM,30.9,24.1,76,30.22,10.0,Calm,Calm,-,N/A,,Clear,0,2013-03-01 07:53:00
2:53 AM,32.0,25.0,75,30.22,10.0,West,4.6,-,N/A,,Clear,260,2013-03-01 08:53:00
3:53 AM,33.1,27.0,78,30.21,10.0,Calm,Calm,-,N/A,,Clear,0,2013-03-01 09:53:00
6:53 AM,32.0,28.0,85,30.23,10.0,North,4.6,-,N/A,,Mostly Cloudy,10,2013-03-01 12:53:00
7:53 AM,33.1,28.0,82,30.25,10.0,South,3.5,-,N/A,,Overcast,190,2013-03-01 13:53:00
8:53 AM,37.0,28.9,73,30.29,10.0,NNE,3.5,-,N/A,,Overcast,30,2013-03-01 14:53:00
9:53 AM,39.9,28.9,65,30.27,10.0,SSW,6.9,-,N/A,,Mostly Cloudy,210,2013-03-01 15:53:00
10:53 AM,43.0,28.0,56,30.27,10.0,SW,3.5,-,N/A,,Partly Cloudy,230,2013-03-01 16:53:00
11:53 AM,48.0,30.0,50,30.26,10.0,West,5.8,-,N/A,,Clear,260,2013-03-01 17:53:00
12:53 PM,51.1,30.0,44,30.23,10.0,North,11.5,-,N/A,,Clear,360,2013-03-01 18:53:00
1:53 PM,51.1,30.9,46,30.22,10.0,North,21.9,27.6,N/A,,Clear,360,2013-03-01 19:53:00
2:53 PM,52.0,30.0,43,30.22,10.0,North,24.2,32.2,N/A,,Scattered Clouds,350,2013-03-01 20:53:00
3:53 PM,51.1,28.9,43,30.23,10.0,North,19.6,26.5,N/A,,Partly Cloudy,10,2013-03-01 21:53:00
4:53 PM,48.9,28.9,46,30.25,10.0,North,19.6,28.8,N/A,,Mostly Cloudy,10,2013-03-01 22:53:00
5:53 PM,48.0,27.0,44,30.25,10.0,North,13.8,-,N/A,,Clear,360,2013-03-01 23:53:00
6:53 PM,43.0,27.0,53,30.27,10.0,North,9.2,-,N/A,,Clear,360,2013-03-02 00:53:00
7:53 PM,39.0,28.0,65,30.29,10.0,NNW,6.9,-,N/A,,Clear,330,2013-03-02 01:53:00
8:53 PM,36.0,28.0,73,30.31,10.0,North,8.1,-,N/A,,Clear,350,2013-03-02 02:53:00
9:53 PM,35.1,28.0,76,30.33,10.0,NNW,9.2,-,N/A,,Clear,340,2013-03-02 03:53:00
10:53 PM,34.0,28.0,79,30.34,10.0,NW,6.9,-,N/A,,Clear,320,2013-03-02 04:53:00
11:53 PM,34.0,28.0,79,30.35,10.0,North,9.2,-,N/A,,Clear,350,2013-03-02 05:53:00